This is the latest recevied weather packets stored in our database for station/object KD2RHT-13. If no packets are shown the sender has not sent any weather packets the latest 10 day(s).
| Time | Temp. | Humidity | Pressure | Rain* | Wind** | Luminosity | Snow |
|---|---|---|---|---|---|---|---|
| 1778008384 | 21.67° C | 70% | 1006.3 hPa | 0 mm | - | 603 W/m² | - |
| 1778008080 | 21.67° C | 71% | 1006.3 hPa | 0 mm | - | 608 W/m² | - |
| 1778007775 | 21.67° C | 71% | 1006.3 hPa | 0 mm | - | 655 W/m² | - |
| 1778007472 | 21.11° C | 75% | 1006.7 hPa | 0 mm | - | 621 W/m² | - |
| 1778007168 | 20.56° C | 77% | 1006.7 hPa | 0 mm | - | 645 W/m² | - |
| 1778006864 | 20° C | 79% | 1006.3 hPa | 0 mm | - | 255 W/m² | - |
| 1778006562 | 18.33° C | 81% | 1006.7 hPa | 1.27 mm | - | 514 W/m² | - |
| 1778006258 | 18.89° C | 82% | 1006.7 hPa | 1.27 mm | - | 163 W/m² | - |
| 1778005956 | 18.89° C | 79% | 1007 hPa | 0 mm | - | 97 W/m² | - |
| 1778005652 | 19.44° C | 79% | 1007 hPa | 0 mm | - | 203 W/m² | - |
| 1778005349 | 19.44° C | 77% | 1007 hPa | 0 mm | - | 163 W/m² | - |
| 1778005045 | 19.44° C | 79% | 1007 hPa | 0 mm | - | 124 W/m² | - |
| 1778004743 | 19.44° C | 79% | 1007 hPa | 0 mm | - | 148 W/m² | - |
| 1778004440 | 19.44° C | 77% | 1006.7 hPa | 0 mm | - | 109 W/m² | - |
| 1778004136 | 20° C | 76% | 1006.7 hPa | 0 mm | - | 102 W/m² | - |
| 1778003832 | 20.56° C | 72% | 1006.3 hPa | 0 mm | - | 106 W/m² | - |
| 1778003529 | 21.11° C | 69% | 1006 hPa | 0 mm | - | 44 W/m² | - |
| 1778003226 | 21.11° C | 69% | 1005.6 hPa | 0 mm | - | 125 W/m² | - |
| 1778002922 | 21.11° C | 67% | 1005.6 hPa | 0 mm | - | 111 W/m² | - |
| 1778002619 | 21.67° C | 65% | 1005.6 hPa | 0 mm | - | 89 W/m² | - |
| 1778002316 | 22.78° C | 61% | 1006 hPa | 0 mm | - | 108 W/m² | - |
| 1778002013 | 22.78° C | 60% | 1005.6 hPa | 0 mm | - | 142 W/m² | - |
| 1778001710 | 22.78° C | 61% | 1005.6 hPa | 0 mm | - | 282 W/m² | - |
| 1778001409 | 22.78° C | 59% | 1005.3 hPa | 0 mm | - | 150 W/m² | - |
| 1778001107 | 22.78° C | 59% | 1005.3 hPa | 0 mm | - | 90 W/m² | - |
* Rain latest hour (hover to see other rain measurements)
** Current wind speed in m/s (hover to see current wind gust speed)